| time (UTC) | temp F | wind direction | speed MPH | gust MPH | rain 1hr in | rain 24hr in | rain mn in | humidity % | barometer mb |
| 20260507092937 | 71 | 114 | 3.0 | 7.0 | 0.00 | 0.02 | 0.01 | 65 | 1012.1 |
| 20260507092438 | 72 | 56 | 2.0 | 7.0 | 0.00 | 0.02 | 0.01 | 66 | 1012.0 |
| 20260507091938 | 72 | 6 | 2.0 | 5.0 | 0.00 | 0.02 | 0.01 | 66 | 1012.0 |
| 20260507091716 | 72 | 44 | 1.0 | 5.0 | 0.00 | 0.02 | 0.01 | 66 | 1012.0 |
| 20260507090936 | 72 | 352 | 1.0 | 4.0 | 0.00 | 0.02 | 0.01 | 66 | 1011.9 |
| 20260507090436 | 71 | 329 | 2.0 | 4.0 | 0.00 | 0.02 | 0.01 | 67 | 1012.0 |
| 20260507085933 | 71 | 283 | 1.0 | 4.0 | 0.00 | 0.02 | 0.01 | 68 | 1011.9 |
| 20260507085711 | 71 | 266 | 1.0 | 6.0 | 0.00 | 0.02 | 0.01 | 67 | 1012.0 |
| 20260507084933 | 70 | 27 | 2.0 | 7.0 | 0.00 | 0.02 | 0.01 | 66 | 1011.9 |
| 20260507084435 | 71 | 328 | 2.0 | 7.0 | 0.00 | 0.02 | 0.01 | 66 | 1012.0 |
| 20260507083934 | 71 | 54 | 2.0 | 4.0 | 0.00 | 0.02 | 0.01 | 66 | 1011.9 |
| 20260507083433 | 71 | 337 | 1.0 | 4.0 | 0.00 | 0.02 | 0.01 | 67 | 1011.9 |
| 20260507083216 | 70 | 211 | 1.0 | 3.0 | 0.00 | 0.02 | 0.01 | 66 | 1011.9 |
| 20260507082934 | 71 | 218 | 1.0 | 3.0 | 0.00 | 0.02 | 0.01 | 66 | 1011.9 |
| 20260507081934 | 70 | 81 | 1.0 | 6.0 | 0.00 | 0.02 | 0.01 | 67 | 1012.1 |
| 20260507081432 | 70 | 333 | 2.0 | 6.0 | 0.00 | 0.02 | 0.01 | 68 | 1012.2 |
| 20260507080932 | 70 | 9 | 2.0 | 5.0 | 0.00 | 0.02 | 0.01 | 67 | 1012.1 |
| 20260507080709 | 69 | 302 | 3.0 | 5.0 | 0.00 | 0.02 | 0.01 | 67 | 1012.1 |
| 20260507075931 | 69 | 301 | 3.0 | 5.0 | 0.00 | 0.02 | 0.01 | 68 | 1012.1 |
| 20260507075433 | 69 | 330 | 2.0 | 5.0 | 0.00 | 0.02 | 0.01 | 69 | 1012.1 |
| 20260507074932 | 69 | 326 | 2.0 | 6.0 | 0.00 | 0.02 | 0.01 | 68 | 1012.2 |
| 20260507074432 | 69 | 343 | 2.0 | 6.0 | 0.00 | 0.02 | 0.01 | 69 | 1012.2 |
| 20260507074211 | 69 | 324 | 2.0 | 6.0 | 0.00 | 0.02 | 0.01 | 72 | 1012.2 |
| 20260507073431 | 68 | 346 | 2.0 | 6.0 | 0.00 | 0.02 | 0.01 | 70 | 1012.3 |
| 20260507073209 | 68 | 40 | 3.0 | 5.0 | 0.00 | 0.02 | 0.01 | 69 | 1012.4 |
| 20260507072434 | 67 | 20 | 3.0 | 6.0 | 0.00 | 0.02 | 0.01 | 71 | 1012.4 |
| 20260507072211 | 67 | 29 | 3.0 | 7.0 | 0.00 | 0.02 | 0.01 | 71 | 1012.4 |
| 20260507071429 | 67 | 27 | 2.0 | 7.0 | 0.00 | 0.02 | 0.01 | 72 | 1012.5 |
| 20260507070930 | 67 | 330 | 3.0 | 5.0 | 0.00 | 0.03 | 0.01 | 72 | 1012.6 |
| 20260507070430 | 67 | 47 | 3.0 | 5.0 | 0.00 | 0.03 | 0.01 | 72 | 1012.5 |
| 20260507065930 | 67 | 51 | 2.0 | 5.0 | 0.00 | 0.03 | 0.01 | 73 | 1012.5 |
| 20260507065430 | 67 | 307 | 2.0 | 4.0 | 0.00 | 0.03 | 0.01 | 73 | 1012.4 |
| 20260507064930 | 67 | 16 | 2.0 | 5.0 | 0.00 | 0.03 | 0.01 | 72 | 1012.4 |
| 20260507064430 | 66 | 341 | 2.0 | 5.0 | 0.00 | 0.03 | 0.01 | 72 | 1012.4 |
| 20260507063930 | 66 | 48 | 2.0 | 4.0 | 0.00 | 0.03 | 0.01 | 75 | 1012.3 |
| 20260507063429 | 66 | 46 | 2.0 | 4.0 | 0.00 | 0.03 | 0.01 | 75 | 1012.3 |
| 20260507062923 | 66 | 38 | 2.0 | 5.0 | 0.00 | 0.03 | 0.01 | 76 | 1012.3 |
| 20260507062421 | 65 | 320 | 2.0 | 5.0 | 0.00 | 0.04 | 0.01 | 77 | 1012.4 |
| 20260507061921 | 65 | 35 | 2.0 | 4.0 | 0.00 | 0.04 | 0.01 | 76 | 1012.4 |
| 20260507061701 | 65 | 32 | 2.0 | 4.0 | 0.00 | 0.04 | 0.01 | 77 | 1012.4 |
| 20260507060922 | 65 | 42 | 3.0 | 5.0 | 0.00 | 0.05 | 0.01 | 79 | 1012.3 |
| 20260507060422 | 64 | 44 | 3.0 | 5.0 | 0.00 | 0.05 | 0.01 | 78 | 1012.4 |
| 20260507055920 | 64 | 43 | 2.0 | 3.0 | 0.00 | 0.05 | 0.01 | 80 | 1012.2 |
| 20260507055708 | 64 | 39 | 0.0 | 3.0 | 0.00 | 0.05 | 0.01 | 82 | 1012.2 |
| 20260507054927 | 62 | 27 | 1.0 | 2.0 | 0.00 | 0.06 | 0.01 | 85 | 1012.2 |
| 20260507054920 | 63 | 27 | 0.0 | 2.0 | 0.00 | 0.06 | 0.01 | 84 | 1012.3 |
| 20260507053915 | 62 | 21 | 1.0 | 2.0 | 0.00 | 0.06 | 0.01 | 87 | 1012.3 |
| 20260507053416 | 61 | 33 | 0.0 | 2.0 | 0.00 | 0.06 | 0.01 | 88 | 1012.3 |
| 20260507052913 | 60 | 30 | 0.0 | 1.0 | 0.00 | 0.06 | 0.01 | 88 | 1012.3 |
| 20260507052414 | 60 | 5 | 0.0 | 2.0 | 0.00 | 0.07 | 0.01 | 88 | 1012.2 |
| 20260507051910 | 59 | 4 | 1.0 | 3.0 | 0.00 | 0.07 | 0.01 | 88 | 1012.2 |
| 20260507051411 | 59 | 6 | 1.0 | 3.0 | 0.00 | 0.07 | 0.01 | 88 | 1012.2 |
| 20260507050907 | 59 | 351 | 2.0 | 4.0 | 0.00 | 0.07 | 0.01 | 88 | 1012.2 |
| 20260507050407 | 59 | 352 | 1.0 | 4.0 | 0.00 | 0.07 | 0.01 | 88 | 1012.2 |
| 20260507045908 | 59 | 7 | 0.0 | 2.0 | 0.00 | 0.07 | 0.01 | 89 | 1012.2 |
| 20260507045405 | 59 | 332 | 0.0 | 0.0 | 0.00 | 0.07 | 0.01 | 89 | 1012.1 |
| 20260507044901 | 59 | 332 | 0.0 | 0.0 | 0.00 | 0.07 | 0.01 | 89 | 1012.1 |
| 20260507044401 | 59 | 332 | 0.0 | 0.0 | 0.00 | 0.07 | 0.01 | 89 | 1012.0 |
| 20260507043901 | 59 | 332 | 0.0 | 1.0 | 0.00 | 0.07 | 0.01 | 89 | 1012.0 |
| 20260507043400 | 58 | 332 | 0.0 | 2.0 | 0.00 | 0.07 | 0.01 | 89 | 1012.2 |
| 20260507042900 | 58 | 347 | 0.0 | 2.0 | 0.00 | 0.07 | 0.01 | 88 | 1012.1 |
| 20260507042357 | 58 | 347 | 0.0 | 1.0 | 0.00 | 0.07 | 0.01 | 88 | 1012.0 |
| 20260507041855 | 58 | 67 | 0.0 | 0.0 | 0.01 | 0.07 | 0.01 | 88 | 1012.1 |
| 20260507041353 | 58 | 67 | 0.0 | 0.0 | 0.01 | 0.07 | 0.01 | 88 | 1012.0 |
| 20260507040852 | 58 | 67 | 0.0 | 0.0 | 0.01 | 0.07 | 0.01 | 87 | 1012.0 |
| 20260507040349 | 58 | 67 | 0.0 | 0.0 | 0.01 | 0.07 | 0.01 | 87 | 1012.0 |
| 20260507035847 | 58 | 67 | 0.0 | 1.0 | 0.01 | 0.07 | 0.01 | 87 | 1011.9 |
| 20260507035343 | 59 | 67 | 0.0 | 1.0 | 0.01 | 0.07 | 0.01 | 87 | 1011.9 |
| 20260507034835 | 59 | 67 | 0.0 | 1.0 | 0.01 | 0.07 | 0.01 | 87 | 1011.9 |
| 20260507034336 | 59 | 67 | 1.0 | 1.0 | 0.01 | 0.07 | 0.01 | 87 | 1011.9 |
| 20260507033833 | 59 | 67 | 1.0 | 1.0 | 0.01 | 0.07 | 0.01 | 86 | 1011.9 |
| 20260507033331 | 59 | 67 | 0.0 | 1.0 | 0.01 | 0.07 | 0.01 | 86 | 1011.9 |
| 20260507032830 | 59 | 67 | 0.0 | 2.0 | 0.01 | 0.07 | 0.01 | 86 | 1011.9 |
| 20260507032331 | 59 | 42 | 0.0 | 2.0 | 0.01 | 0.07 | 0.00 | 86 | 1011.9 |
| 20260507031831 | 59 | 60 | 0.0 | 2.0 | 0.00 | 0.06 | 0.00 | 86 | 1011.9 |
| 20260507031331 | 59 | 60 | 0.0 | 2.0 | 0.00 | 0.06 | 0.00 | 86 | 1011.8 |
| 20260507030836 | 59 | 60 | 0.0 | 1.0 | 0.00 | 0.06 | 0.00 | 86 | 1011.8 |
| 20260507030340 | 59 | 60 | 1.0 | 2.0 | 0.00 | 0.06 | 0.00 | 86 | 1011.7 |
| 20260507030336 | 59 | 60 | 0.0 | 1.0 | 0.00 | 0.06 | 0.00 | 86 | 1011.8 |
| 20260507025330 | 59 | 60 | 0.0 | 2.0 | 0.00 | 0.06 | 0.00 | 86 | 1011.7 |
| 20260507025106 | 59 | 60 | 0.0 | 1.0 | 0.00 | 0.06 | 0.00 | 86 | 1011.8 |
| 20260507024331 | 59 | 60 | 0.0 | 0.0 | 0.00 | 0.06 | 0.00 | 85 | 1011.9 |
| 20260507023831 | 59 | 60 | 0.0 | 0.0 | 0.00 | 0.06 | 0.00 | 85 | 1011.9 |
| 20260507023330 | 59 | 60 | 0.0 | 1.0 | 0.00 | 0.06 | 0.00 | 84 | 1011.9 |
| 20260507022830 | 59 | 60 | 0.0 | 1.0 | 0.00 | 0.06 | 0.00 | 84 | 1011.9 |
| 20260507022329 | 60 | 60 | 1.0 | 3.0 | 0.00 | 0.06 | 0.00 | 84 | 1011.9 |
| 20260507021826 | 59 | 60 | 1.0 | 4.0 | 0.00 | 0.06 | 0.00 | 84 | 1011.8 |
| 20260507021603 | 59 | 14 | 0.0 | 1.0 | 0.00 | 0.06 | 0.00 | 85 | 1012.0 |
| 20260507021325 | 59 | 40 | 1.0 | 4.0 | 0.00 | 0.06 | 0.00 | 84 | 1011.9 |
| 20260507020321 | 59 | 4 | 0.0 | 1.0 | 0.00 | 0.06 | 0.00 | 85 | 1011.9 |
| 20260507015818 | 59 | 39 | 0.0 | 0.0 | 0.00 | 0.06 | 0.00 | 85 | 1011.9 |
| 20260507015316 | 59 | 39 | 0.0 | 1.0 | 0.00 | 0.06 | 0.00 | 85 | 1011.9 |
| 20260507014814 | 59 | 39 | 0.0 | 1.0 | 0.00 | 0.06 | 0.00 | 85 | 1011.8 |
| 20260507014545 | 59 | 39 | 0.0 | 1.0 | 0.00 | 0.06 | 0.00 | 85 | 1011.9 |
| 20260507014046 | 59 | 40 | 0.0 | 1.0 | 0.00 | 0.06 | 0.00 | 85 | 1011.8 |
| 20260507013312 | 59 | 52 | 0.0 | 1.0 | 0.00 | 0.06 | 0.00 | 85 | 1011.8 |
| 20260507012812 | 59 | 52 | 1.0 | 2.0 | 0.00 | 0.06 | 0.00 | 85 | 1011.9 |
| 20260507012313 | 59 | 56 | 0.0 | 2.0 | 0.00 | 0.06 | 0.00 | 86 | 1011.8 |
| 20260507011810 | 59 | 38 | 0.0 | 1.0 | 0.00 | 0.06 | 0.00 | 86 | 1011.8 |
| 20260507011307 | 59 | 49 | 0.0 | 1.0 | 0.00 | 0.06 | 0.00 | 86 | 1011.9 |
| 20260507011103 | 59 | 49 | 1.0 | 6.0 | 0.00 | 0.06 | 0.00 | 87 | 1011.8 |
| 20260507010818 | 59 | 49 | 1.0 | 2.0 | 0.00 | 0.06 | 0.00 | 86 | 1011.9 |
| 20260507010033 | 59 | 8 | 1.0 | 6.0 | 0.00 | 0.06 | 0.00 | 87 | 1011.9 |
| 20260507005308 | 59 | 58 | 0.0 | 1.0 | 0.00 | 0.06 | 0.00 | 88 | 1012.0 |
| 20260507004806 | 59 | 58 | 0.0 | 1.0 | 0.00 | 0.06 | 0.00 | 88 | 1011.9 |
| 20260507004306 | 59 | 55 | 0.0 | 1.0 | 0.00 | 0.06 | 0.00 | 88 | 1011.9 |
| 20260507003806 | 59 | 55 | 0.0 | 1.0 | 0.00 | 0.06 | 0.00 | 88 | 1012.0 |
| 20260507003536 | 59 | 55 | 0.0 | 0.0 | 0.00 | 0.06 | 0.00 | 88 | 1011.9 |
| 20260507002804 | 59 | 55 | 0.0 | 0.0 | 0.00 | 0.06 | 0.00 | 88 | 1012.0 |
| 20260507002306 | 59 | 55 | 0.0 | 0.0 | 0.00 | 0.06 | 0.00 | 88 | 1011.9 |
| 20260507001805 | 59 | 55 | 0.0 | 0.0 | 0.00 | 0.06 | 0.00 | 88 | 1012.0 |
| 20260507001304 | 59 | 55 | 0.0 | 0.0 | 0.00 | 0.06 | 0.00 | 88 | 1011.9 |
| 20260507000804 | 59 | 55 | 0.0 | 0.0 | 0.00 | 0.06 | 0.00 | 88 | 1012.0 |
| 20260507000533 | 59 | 55 | 0.0 | 0.0 | 0.00 | 0.06 | 0.00 | 88 | 1011.9 |
| 20260506235804 | 59 | 55 | 0.0 | 0.0 | 0.00 | 0.06 | 0.00 | 88 | 1012.0 |
| 20260506235536 | 59 | 55 | 0.0 | 0.0 | 0.00 | 0.06 | 0.00 | 87 | 1012.0 |
| 20260506234804 | 59 | 55 | 0.0 | 0.0 | 0.00 | 0.06 | 0.00 | 88 | 1012.0 |
| 20260506234303 | 59 | 55 | 0.0 | 0.0 | 0.00 | 0.06 | 0.00 | 87 | 1012.1 |
| 20260506233804 | 59 | 55 | 0.0 | 0.0 | 0.00 | 0.06 | 0.00 | 87 | 1012.2 |
| 20260506233303 | 59 | 55 | 0.0 | 0.0 | 0.00 | 0.06 | 0.00 | 87 | 1012.2 |
| 20260506232803 | 59 | 55 | 0.0 | 0.0 | 0.00 | 0.06 | 0.00 | 87 | 1012.2 |
| 20260506232306 | 59 | 55 | 0.0 | 0.0 | 0.00 | 0.06 | 0.00 | 87 | 1012.1 |
| 20260506231803 | 59 | 55 | 0.0 | 1.0 | 0.00 | 0.06 | 0.00 | 87 | 1012.1 |
| 20260506231556 | 59 | 55 | 0.0 | 0.0 | 0.00 | 0.06 | 0.00 | 87 | 1012.3 |
| 20260506231320 | 59 | 55 | 0.0 | 1.0 | 0.00 | 0.06 | 0.00 | 87 | 1012.2 |
| 20260506230303 | 59 | 55 | 0.0 | 1.0 | 0.00 | 0.06 | 0.00 | 87 | 1012.4 |
| 20260506225803 | 59 | 55 | 0.0 | 3.0 | 0.00 | 0.06 | 0.00 | 87 | 1012.5 |
| 20260506225305 | 59 | 122 | 1.0 | 3.0 | 0.00 | 0.06 | 0.00 | 87 | 1012.6 |
| 20260506224804 | 59 | 51 | 1.0 | 3.0 | 0.00 | 0.06 | 0.00 | 88 | 1012.6 |
| 20260506224302 | 59 | 68 | 2.0 | 5.0 | 0.00 | 0.06 | 0.00 | 88 | 1012.6 |
| 20260506223802 | 59 | 62 | 2.0 | 5.0 | 0.00 | 0.06 | 0.00 | 89 | 1012.6 |
| 20260506223302 | 60 | 35 | 0.0 | 3.0 | 0.00 | 0.06 | 0.00 | 90 | 1012.6 |
| 20260506222802 | 60 | 75 | 0.0 | 0.0 | 0.00 | 0.06 | 0.00 | 90 | 1012.5 |
| 20260506222305 | 60 | 75 | 0.0 | 0.0 | 0.00 | 0.06 | 0.00 | 90 | 1012.6 |
| 20260506221803 | 60 | 75 | 0.0 | 0.0 | 0.01 | 0.06 | 0.00 | 89 | 1012.6 |
| 20260506221301 | 60 | 75 | 0.0 | 1.0 | 0.01 | 0.06 | 0.00 | 89 | 1012.5 |
| 20260506220758 | 60 | 75 | 0.0 | 2.0 | 0.02 | 0.06 | 0.00 | 89 | 1012.6 |
| 20260506220256 | 60 | 75 | 1.0 | 2.0 | 0.02 | 0.06 | 0.00 | 89 | 1012.6 |
| 20260506215801 | 60 | 120 | 0.0 | 0.0 | 0.02 | 0.06 | 0.06 | 88 | 1012.7 |
| 20260506215755 | 60 | 91 | 0.0 | 1.0 | 0.02 | 0.06 | 0.06 | 89 | 1012.6 |
| 20260506214753 | 60 | 120 | 0.0 | 1.0 | 0.02 | 0.06 | 0.06 | 88 | 1012.7 |
| 20260506214251 | 61 | 120 | 0.0 | 1.0 | 0.02 | 0.06 | 0.06 | 88 | 1012.8 |
| 20260506214030 | 61 | 113 | 1.0 | 2.0 | 0.02 | 0.06 | 0.06 | 88 | 1012.9 |
| 20260506213250 | 61 | 113 | 1.0 | 2.0 | 0.02 | 0.06 | 0.06 | 87 | 1013.0 |
| 20260506212751 | 61 | 121 | 1.0 | 2.0 | 0.02 | 0.06 | 0.06 | 87 | 1013.1 |
| 20260506212252 | 61 | 121 | 0.0 | 2.0 | 0.02 | 0.06 | 0.06 | 87 | 1013.1 |
| 20260506211749 | 61 | 221 | 0.0 | 1.0 | 0.01 | 0.06 | 0.06 | 87 | 1013.0 |
| 20260506211524 | 61 | 219 | 0.0 | 1.0 | 0.01 | 0.06 | 0.05 | 87 | 1013.0 |
| 20260506210759 | 61 | 228 | 0.0 | 1.0 | 0.00 | 0.05 | 0.05 | 87 | 1012.6 |
| 20260506210754 | 61 | 228 | 0.0 | 1.0 | 0.00 | 0.05 | 0.05 | 87 | 1012.8 |
| 20260506205746 | 61 | 58 | 0.0 | 1.0 | 0.00 | 0.05 | 0.05 | 87 | 1012.6 |
| 20260506205247 | 61 | 46 | 0.0 | 1.0 | 0.00 | 0.05 | 0.05 | 87 | 1012.4 |
| 20260506204748 | 61 | 47 | 0.0 | 1.0 | 0.00 | 0.05 | 0.05 | 87 | 1012.5 |
| 20260506204544 | 61 | 50 | 0.0 | 2.0 | 0.00 | 0.05 | 0.05 | 87 | 1012.4 |
| 20260506204300 | 61 | 47 | 1.0 | 2.0 | 0.00 | 0.05 | 0.05 | 87 | 1012.5 |
| 20260506204026 | 61 | 46 | 1.0 | 2.0 | 0.00 | 0.05 | 0.05 | 86 | 1012.4 |
| 20260506203044 | 61 | 124 | 0.0 | 0.0 | 0.00 | 0.05 | 0.05 | 86 | 1012.5 |
| 20260506202800 | 61 | 124 | 0.0 | 0.0 | 0.00 | 0.05 | 0.05 | 86 | 1012.5 |
| 20260506202017 | 61 | 124 | 0.0 | 0.0 | 0.00 | 0.05 | 0.05 | 85 | 1012.5 |
| 20260506201232 | 61 | 124 | 0.0 | 0.0 | 0.00 | 0.05 | 0.05 | 85 | 1012.6 |
| 20260506200735 | 61 | 124 | 0.0 | 0.0 | 0.00 | 0.05 | 0.05 | 85 | 1012.6 |
| 20260506200234 | 61 | 124 | 0.0 | 0.0 | 0.00 | 0.05 | 0.05 | 84 | 1012.7 |
| 20260506195731 | 61 | 124 | 0.0 | 0.0 | 0.00 | 0.05 | 0.05 | 84 | 1012.7 |
| 20260506195230 | 62 | 124 | 0.0 | 1.0 | 0.00 | 0.05 | 0.05 | 84 | 1012.7 |
| 20260506194729 | 62 | 124 | 1.0 | 3.0 | 0.00 | 0.05 | 0.05 | 84 | 1012.7 |
| 20260506194226 | 62 | 124 | 1.0 | 3.0 | 0.00 | 0.05 | 0.05 | 83 | 1012.8 |
| 20260506193725 | 62 | 126 | 1.0 | 3.0 | 0.00 | 0.05 | 0.05 | 83 | 1012.7 |
| 20260506193223 | 63 | 131 | 1.0 | 2.0 | 0.00 | 0.05 | 0.05 | 82 | 1012.7 |
| 20260506192723 | 63 | 124 | 1.0 | 2.0 | 0.00 | 0.05 | 0.05 | 81 | 1012.7 |
| 20260506192224 | 63 | 123 | 1.0 | 2.0 | 0.00 | 0.05 | 0.05 | 80 | 1012.7 |
| 20260506191721 | 63 | 134 | 1.0 | 2.0 | 0.00 | 0.05 | 0.05 | 79 | 1012.6 |
| 20260506191219 | 63 | 124 | 1.0 | 3.0 | 0.00 | 0.05 | 0.05 | 79 | 1012.6 |
| 20260506190718 | 63 | 127 | 1.0 | 3.0 | 0.00 | 0.05 | 0.05 | 79 | 1012.6 |
| 20260506190217 | 63 | 123 | 1.0 | 3.0 | 0.00 | 0.05 | 0.05 | 78 | 1012.6 |
| 20260506185958 | 63 | 121 | 1.0 | 2.0 | 0.00 | 0.05 | 0.05 | 78 | 1012.5 |
| 20260506185211 | 63 | 118 | 0.0 | 2.0 | 0.00 | 0.05 | 0.05 | 78 | 1012.4 |
| 20260506184712 | 64 | 118 | 0.0 | 1.0 | 0.00 | 0.05 | 0.05 | 77 | 1012.4 |
| 20260506184211 | 64 | 109 | 1.0 | 2.0 | 0.00 | 0.05 | 0.05 | 77 | 1012.4 |
| 20260506183944 | 64 | 103 | 1.0 | 3.0 | 0.00 | 0.05 | 0.05 | 77 | 1012.3 |
| 20260506183209 | 64 | 122 | 1.0 | 3.0 | 0.00 | 0.05 | 0.05 | 76 | 1012.4 |
| 20260506182709 | 64 | 115 | 1.0 | 3.0 | 0.00 | 0.05 | 0.05 | 76 | 1012.3 |
| 20260506182206 | 64 | 122 | 0.0 | 3.0 | 0.00 | 0.05 | 0.05 | 76 | 1012.3 |
| 20260506181707 | 64 | 117 | 0.0 | 1.0 | 0.00 | 0.05 | 0.05 | 76 | 1012.3 |
| 20260506181204 | 64 | 121 | 1.0 | 2.0 | 0.00 | 0.05 | 0.05 | 76 | 1012.2 |
| 20260506180702 | 64 | 127 | 1.0 | 3.0 | 0.00 | 0.05 | 0.05 | 76 | 1012.1 |
| 20260506180441 | 65 | 119 | 2.0 | 3.0 | 0.00 | 0.05 | 0.05 | 75 | 1012.1 |
| 20260506175706 | 65 | 110 | 1.0 | 3.0 | 0.00 | 0.05 | 0.05 | 75 | 1012.0 |
| 20260506175203 | 65 | 117 | 1.0 | 2.0 | 0.00 | 0.05 | 0.05 | 75 | 1011.9 |
| 20260506174702 | 65 | 103 | 1.0 | 2.0 | 0.00 | 0.05 | 0.05 | 74 | 1011.9 |
| 20260506174203 | 65 | 117 | 1.0 | 2.0 | 0.00 | 0.05 | 0.05 | 74 | 1012.0 |
| 20260506173704 | 65 | 122 | 1.0 | 2.0 | 0.00 | 0.05 | 0.05 | 74 | 1011.9 |
| 20260506173156 | 65 | 124 | 1.0 | 3.0 | 0.00 | 0.05 | 0.05 | 74 | 1011.9 |
| 20260506172655 | 65 | 130 | 2.0 | 3.0 | 0.00 | 0.05 | 0.05 | 73 | 1011.9 |
| 20260506172154 | 65 | 127 | 2.0 | 3.0 | 0.00 | 0.05 | 0.05 | 73 | 1011.9 |
| 20260506171656 | 66 | 104 | 1.0 | 3.0 | 0.00 | 0.05 | 0.05 | 73 | 1011.9 |
| 20260506171155 | 66 | 115 | 0.0 | 3.0 | 0.00 | 0.05 | 0.05 | 74 | 1011.9 |
| 20260506170705 | 66 | 233 | 0.0 | 2.0 | 0.00 | 0.05 | 0.05 | 74 | 1011.9 |
| 20260506170658 | 66 | 115 | 0.0 | 2.0 | 0.00 | 0.05 | 0.05 | 75 | 1011.9 |
| 20260506165655 | 67 | 134 | 0.0 | 1.0 | 0.00 | 0.05 | 0.05 | 73 | 1011.9 |
| 20260506165154 | 67 | 169 | 0.0 | 2.0 | 0.00 | 0.05 | 0.05 | 73 | 1012.0 |
| 20260506164655 | 67 | 172 | 0.0 | 2.0 | 0.00 | 0.05 | 0.05 | 72 | 1011.9 |
| 20260506164432 | 67 | 226 | 1.0 | 3.0 | 0.00 | 0.05 | 0.05 | 72 | 1012.0 |
| 20260506163654 | 67 | 174 | 1.0 | 3.0 | 0.00 | 0.05 | 0.05 | 71 | 1011.9 |
| 20260506163153 | 67 | 214 | 1.0 | 4.0 | 0.00 | 0.05 | 0.05 | 71 | 1012.1 |
| 20260506162652 | 67 | 247 | 1.0 | 4.0 | 0.00 | 0.05 | 0.05 | 71 | 1012.0 |
| 20260506162431 | 67 | 208 | 1.0 | 3.0 | 0.00 | 0.05 | 0.05 | 71 | 1012.0 |
| 20260506161650 | 67 | 215 | 1.0 | 3.0 | 0.00 | 0.05 | 0.05 | 71 | 1012.0 |
| 20260506161150 | 67 | 252 | 1.0 | 3.0 | 0.00 | 0.05 | 0.05 | 70 | 1012.0 |
| 20260506160648 | 67 | 212 | 1.0 | 5.0 | 0.00 | 0.05 | 0.05 | 70 | 1012.0 |
| 20260506160148 | 67 | 221 | 1.0 | 5.0 | 0.00 | 0.05 | 0.05 | 69 | 1012.0 |
| 20260506155648 | 67 | 135 | 1.0 | 5.0 | 0.00 | 0.05 | 0.05 | 70 | 1012.1 |
| 20260506155148 | 67 | 131 | 2.0 | 6.0 | 0.00 | 0.05 | 0.05 | 69 | 1012.1 |
| 20260506154648 | 67 | 205 | 2.0 | 6.0 | 0.00 | 0.05 | 0.05 | 69 | 1012.1 |
| 20260506154148 | 68 | 152 | 2.0 | 5.0 | 0.00 | 0.05 | 0.05 | 69 | 1012.2 |
| 20260506153649 | 68 | 245 | 1.0 | 5.0 | 0.00 | 0.05 | 0.05 | 68 | 1012.3 |
| 20260506153150 | 68 | 218 | 1.0 | 6.0 | 0.00 | 0.05 | 0.05 | 68 | 1012.2 |
| 20260506152648 | 68 | 252 | 1.0 | 6.0 | 0.00 | 0.05 | 0.05 | 67 | 1012.2 |
| 20260506152147 | 68 | 208 | 2.0 | 6.0 | 0.00 | 0.05 | 0.05 | 67 | 1012.3 |
| 20260506151646 | 68 | 148 | 3.0 | 6.0 | 0.00 | 0.05 | 0.05 | 66 | 1012.3 |
| 20260506151146 | 69 | 156 | 3.0 | 7.0 | 0.00 | 0.05 | 0.05 | 66 | 1012.3 |
| 20260506150924 | 69 | 219 | 2.0 | 7.0 | 0.00 | 0.05 | 0.05 | 66 | 1012.3 |
| 20260506150146 | 69 | 215 | 1.0 | 4.0 | 0.00 | 0.05 | 0.05 | 65 | 1012.3 |
| 20260506145652 | 69 | 114 | 1.0 | 4.0 | 0.00 | 0.05 | 0.05 | 67 | 1012.1 |
| 20260506145143 | 69 | 169 | 2.0 | 4.0 | 0.00 | 0.05 | 0.05 | 66 | 1012.2 |
| 20260506144914 | 69 | 227 | 2.0 | 6.0 | 0.00 | 0.05 | 0.05 | 67 | 1012.1 |
| 20260506144142 | 69 | 212 | 2.0 | 6.0 | 0.00 | 0.05 | 0.05 | 66 | 1012.2 |
| 20260506143643 | 69 | 225 | 3.0 | 6.0 | 0.00 | 0.05 | 0.05 | 66 | 1012.2 |
| 20260506143141 | 69 | 209 | 3.0 | 7.0 | 0.00 | 0.05 | 0.05 | 65 | 1012.2 |
| 20260506142641 | 69 | 226 | 3.0 | 7.0 | 0.00 | 0.05 | 0.05 | 65 | 1012.4 |
| 20260506142414 | 70 | 146 | 3.0 | 7.0 | 0.00 | 0.05 | 0.05 | 66 | 1012.3 |
| 20260506141914 | 70 | 142 | 4.0 | 7.0 | 0.00 | 0.05 | 0.05 | 65 | 1012.5 |
| 20260506141137 | 70 | 185 | 3.0 | 7.0 | 0.00 | 0.05 | 0.05 | 67 | 1012.5 |
| 20260506140904 | 71 | 157 | 4.0 | 9.0 | 0.00 | 0.05 | 0.05 | 65 | 1012.5 |
| 20260506140136 | 71 | 160 | 4.0 | 9.0 | 0.00 | 0.05 | 0.05 | 64 | 1012.4 |
| 20260506135636 | 71 | 186 | 4.0 | 11.0 | 0.00 | 0.05 | 0.05 | 63 | 1012.4 |
| 20260506135132 | 71 | 195 | 4.0 | 11.0 | 0.00 | 0.05 | 0.05 | 63 | 1012.6 |
| 20260506134632 | 71 | 178 | 4.0 | 8.0 | 0.00 | 0.05 | 0.05 | 65 | 1012.7 |
| 20260506134132 | 71 | 199 | 4.0 | 8.0 | 0.00 | 0.05 | 0.05 | 65 | 1012.5 |
| 20260506133632 | 71 | 237 | 4.0 | 8.0 | 0.00 | 0.05 | 0.05 | 66 | 1012.3 |
| 20260506133133 | 71 | 241 | 4.0 | 8.0 | 0.00 | 0.05 | 0.05 | 66 | 1012.3 |
| 20260506133046 | 71 | 202 | 4.0 | 8.0 | 0.00 | 0.05 | 0.05 | 64 | 1012.2 |
| 20260506133019 | 71 | 196 | 4.0 | 8.0 | 0.00 | 0.05 | 0.05 | 62 | 1012.3 |
| 20260506131641 | 71 | 219 | 4.0 | 9.0 | 0.00 | 0.05 | 0.05 | 61 | 1012.3 |
| 20260506131132 | 71 | 185 | 4.0 | 10.0 | 0.00 | 0.05 | 0.05 | 63 | 1012.3 |
| 20260506130634 | 72 | 214 | 5.0 | 10.0 | 0.00 | 0.05 | 0.05 | 63 | 1012.3 |
| 20260506130126 | 72 | 218 | 5.0 | 11.0 | 0.00 | 0.05 | 0.05 | 62 | 1012.2 |
| 20260506125854 | 72 | 244 | 5.0 | 11.0 | 0.00 | 0.05 | 0.05 | 58 | 1012.3 |
| 20260506125126 | 72 | 200 | 5.0 | 10.0 | 0.00 | 0.05 | 0.05 | 60 | 1012.2 |
| 20260506124623 | 73 | 212 | 5.0 | 11.0 | 0.00 | 0.05 | 0.05 | 58 | 1012.1 |
| 20260506124120 | 73 | 188 | 5.0 | 11.0 | 0.00 | 0.05 | 0.05 | 55 | 1012.2 |
| 20260506123620 | 73 | 205 | 4.0 | 9.0 | 0.00 | 0.05 | 0.05 | 55 | 1012.0 |
| 20260506123120 | 73 | 243 | 5.0 | 11.0 | 0.00 | 0.05 | 0.05 | 54 | 1012.0 |
| 20260506122617 | 73 | 238 | 5.0 | 12.0 | 0.00 | 0.05 | 0.05 | 52 | 1012.0 |
| 20260506122118 | 73 | 206 | 4.0 | 12.0 | 0.00 | 0.05 | 0.05 | 53 | 1012.1 |
| 20260506121615 | 73 | 231 | 4.0 | 11.0 | 0.00 | 0.05 | 0.05 | 54 | 1012.0 |
| 20260506121115 | 73 | 223 | 4.0 | 8.0 | 0.00 | 0.05 | 0.05 | 51 | 1012.0 |
| 20260506120616 | 73 | 219 | 4.0 | 10.0 | 0.00 | 0.05 | 0.05 | 52 | 1011.9 |
| 20260506120116 | 74 | 214 | 4.0 | 12.0 | 0.00 | 0.05 | 0.05 | 51 | 1012.0 |
| 20260506115613 | 74 | 102 | 4.0 | 12.0 | 0.00 | 0.05 | 0.05 | 53 | 1012.1 |
| 20260506115115 | 74 | 147 | 3.0 | 7.0 | 0.00 | 0.05 | 0.05 | 55 | 1012.1 |
| 20260506114611 | 74 | 221 | 4.0 | 8.0 | 0.00 | 0.05 | 0.05 | 52 | 1012.2 |
| 20260506114112 | 74 | 214 | 4.0 | 8.0 | 0.00 | 0.05 | 0.05 | 53 | 1012.2 |
| 20260506113611 | 73 | 186 | 4.0 | 8.0 | 0.00 | 0.05 | 0.05 | 53 | 1012.1 |
| 20260506113110 | 73 | 196 | 3.0 | 8.0 | 0.00 | 0.05 | 0.05 | 53 | 1012.3 |
| 20260506112609 | 73 | 202 | 3.0 | 6.0 | 0.00 | 0.05 | 0.05 | 55 | 1012.3 |
| 20260506112110 | 74 | 256 | 3.0 | 10.0 | 0.00 | 0.05 | 0.05 | 55 | 1012.3 |
| 20260506111838 | 74 | 221 | 2.0 | 10.0 | 0.00 | 0.05 | 0.05 | 57 | 1012.3 |
| 20260506111108 | 74 | 158 | 2.0 | 7.0 | 0.00 | 0.05 | 0.05 | 55 | 1012.3 |
| 20260506110607 | 74 | 207 | 2.0 | 5.0 | 0.00 | 0.05 | 0.05 | 59 | 1012.2 |
| 20260506110105 | 74 | 138 | 2.0 | 5.0 | 0.00 | 0.05 | 0.05 | 60 | 1012.3 |
| 20260506105606 | 73 | 118 | 2.0 | 9.0 | 0.00 | 0.05 | 0.05 | 57 | 1012.3 |
| 20260506105105 | 73 | 125 | 2.0 | 9.0 | 0.00 | 0.05 | 0.05 | 60 | 1012.3 |
| 20260506104603 | 72 | 209 | 2.0 | 5.0 | 0.00 | 0.05 | 0.05 | 63 | 1012.4 |
| 20260506104103 | 72 | 68 | 3.0 | 9.0 | 0.00 | 0.05 | 0.05 | 59 | 1012.5 |
| 20260506103832 | 72 | 115 | 4.0 | 9.0 | 0.00 | 0.05 | 0.05 | 61 | 1012.5 |
| 20260506103107 | 72 | 224 | 4.0 | 7.0 | 0.00 | 0.05 | 0.05 | 59 | 1012.5 |
| 20260506102603 | 72 | 198 | 3.0 | 7.0 | 0.00 | 0.05 | 0.05 | 59 | 1012.5 |
| 20260506102104 | 73 | 206 | 2.0 | 7.0 | 0.00 | 0.05 | 0.05 | 60 | 1012.5 |
| 20260506101603 | 73 | 221 | 1.0 | 5.0 | 0.00 | 0.05 | 0.05 | 63 | 1012.4 |
| 20260506101103 | 73 | 120 | 1.0 | 4.0 | 0.00 | 0.05 | 0.05 | 63 | 1012.4 |
| 20260506100838 | 72 | 89 | 1.0 | 3.0 | 0.00 | 0.05 | 0.05 | 64 | 1012.7 |
| 20260506095603 | 71 | 167 | 2.0 | 6.0 | 0.00 | 0.05 | 0.05 | 65 | 1012.8 |
| 20260506095103 | 71 | 63 | 1.0 | 5.0 | 0.00 | 0.05 | 0.05 | 66 | 1012.8 |
| 20260506094603 | 71 | 70 | 1.0 | 4.0 | 0.00 | 0.05 | 0.05 | 67 | 1012.6 |
| 20260506094102 | 71 | 81 | 1.0 | 4.0 | 0.00 | 0.05 | 0.05 | 68 | 1012.6 |